This is the latest recevied weather packets stored in our database for station/object DH0DM-13. If no packets are shown the sender has not sent any weather packets the latest 10 day(s).
| Time | Temp. | Humidity | Pressure | Rain* | Wind** | Luminosity | Snow |
|---|---|---|---|---|---|---|---|
| 1787472772 | 16.11° C | 68% | 995.5 hPa | 0 mm | 8.05 m/s, 233° | - | - |
| 1787472171 | 15.56° C | 72% | 995.4 hPa | 0 mm | 5.81 m/s, 205° | - | - |
| 1787471570 | 15.56° C | 71% | 995.5 hPa | 0 mm | 9.83 m/s, 212° | - | - |
| 1787470969 | 15° C | 73% | 995.4 hPa | 0 mm | 4.92 m/s, 180° | - | - |
| 1787470369 | 15° C | 74% | 995.3 hPa | 0 mm | 2.68 m/s, 230° | - | - |
| 1787469768 | 15° C | 75% | 995.3 hPa | 0 mm | 1.34 m/s, 230° | - | - |
| 1787469167 | 14.44° C | 74% | 995.3 hPa | 0 mm | 4.92 m/s, 215° | - | - |
| 1787468566 | 14.44° C | 76% | 995.2 hPa | 0 mm | 11.62 m/s, 216° | - | - |
| 1787467965 | 14.44° C | 77% | 995.3 hPa | 0 mm | 8.05 m/s, 264° | - | - |
| 1787467364 | 14.44° C | 78% | 995.2 hPa | 0 mm | 5.36 m/s, 209° | - | - |
| 1787466763 | 14.44° C | 78% | 995.1 hPa | 0 mm | 9.83 m/s, 228° | - | - |
| 1787466162 | 13.89° C | 80% | 995.2 hPa | 0 mm | 8.05 m/s, 244° | - | - |
| 1787465562 | 13.89° C | 80% | 995 hPa | 0 mm | 4.92 m/s, 248° | - | - |
| 1787464961 | 13.33° C | 81% | 994.9 hPa | 0 mm | 6.26 m/s, 187° | - | - |
| 1787464360 | 13.33° C | 81% | 995 hPa | 0 mm | 2.24 m/s, 223° | - | - |
| 1787463759 | 13.33° C | 82% | 994.7 hPa | 0 mm | 4.02 m/s, 228° | - | - |
| 1787463158 | 12.78° C | 82% | 994.9 hPa | 0 mm | 2.68 m/s, 231° | - | - |
| 1787462557 | 12.78° C | 83% | 994.9 hPa | 0 mm | 4.02 m/s, 232° | - | - |
| 1787461956 | 12.22° C | 84% | 994.5 hPa | 0 mm | 4.02 m/s, 221° | - | - |
| 1787461356 | 12.22° C | 86% | 994.6 hPa | 0 mm | 3.58 m/s, 209° | - | - |
| 1787460755 | 11.67° C | 87% | 994.5 hPa | 0 mm | 2.24 m/s, 224° | - | - |
| 1787460154 | 11.67° C | 87% | 994.7 hPa | 0 mm | 4.47 m/s, 236° | - | - |
| 1787459553 | 11.67° C | 88% | 994.4 hPa | 0 mm | 4.92 m/s, 237° | - | - |
| 1787458952 | 11.67° C | 89% | 994.4 hPa | 0 mm | 4.92 m/s, 218° | - | - |
| 1787458351 | 11.67° C | 88% | 994.2 hPa | 0 mm | 3.58 m/s, 243° | - | - |
* Rain since midnight (hover to see other rain measurements)
** Current wind speed in m/s (hover to see current wind gust speed)